[[{"header":{"parameterUnit":"m.s-1","parameterCategory":2,"la1":30.2991,"la2":30.254,"lo1":-89.0895,"lo2":-89.0444,"dy":0.0017,"dx":0.0017,"nx":28,"ny":28,"refTime":"2024-04-19T21:00:00:Z","depth":"0","parameterNumber":2,"parameterNumberName":"U-component_of_CURRENTS"},"data":[0,0,0,0,0,0,0,0,0,0,0,0,0,0,0,0,0,0,0,0,0,0,0,0,0,0,0,0,0,0,0,0,0,0,0,0,0,0,0,0,0,0,0,0,0,0,0,0,0,0,0,0,0,0,0,0,0,0,0.2833,0.2833,0,0.282,0.2819,0.2819,0.2787,0.2786,0.2786,0.2786,0.2732,0.2731,0.273,0,0,0,0,0,0,0,0,0,0,0,0,0,0.2841,0.284,0.2833,0.2833,0.2833,0.282,0.2819,0.2819,0.2787,0.2786,0.2786,0.2785,0.2732,0.2731,0.273,0,0,0,0,0,0,0,0,0,0,0,0,0,0.2831,0.284,0.2833,0.2817,0.2815,0.282,0.2819,0.2819,0.2787,0.2786,0.2786,0.2785,0.2732,0.2731,0.273,0.2735,0,0,0.2725,0.2724,0,0,0,0,0,0,0,0,0.2832,0.2831,0.2819,0.2818,0.2816,0.2806,0.2802,0.2789,0.2787,0.2796,0.2786,0.2785,0.2755,0.2751,0.2748,0.2732,0.273,0.2725,0.2724,0.2723,0.2723,0,0,0,0,0,0,0,0.2833,0.2831,0.2825,0.2819,0.2818,0.2814,0.2812,0.28,0.2777,0.2795,0.2793,0.2795,0.2753,0.275,0.2747,0.2729,0.2725,0.2724,0.2723,0.2722,0.2719,0.272,0,0,0,0,0,0,0.2839,0.2832,0.2826,0.2825,0.2825,0.2815,0.2812,0.2808,0.2778,0.2774,0.2796,0.2794,0.2753,0.2748,0.2744,0.2769,0.2723,0.2722,0.2721,0.2719,0.272,0.272,0,0,0,0,0,0,0.2839,0.2838,0.2826,0.283,0.2829,0.2815,0.2812,0.2809,0.2808,0.278,0.2774,0.2799,0.2752,0.2747,0.2743,0.2766,0.2721,0.272,0.2718,0.2719,0.272,0.2806,0,0,0,0,0,0,0.2839,0.2838,0.2843,0.283,0.2829,0.2838,0.2813,0.2809,0.2811,0.2808,0.278,0.2774,0.2751,0.2745,0.2741,0.2763,0.2719,0.2717,0.2718,0.272,0.2802,0.281,0.2816,0,0,0,0,0,0.2839,0.2848,0.2843,0.2843,0.2834,0.2839,0.2839,0.2825,0.2812,0.282,0.28,0.2775,0.2752,0.2745,0.274,0.2762,0.2716,0.2718,0.2719,0.2799,0.2808,0.2816,0,0,0,0,0,0,0.2858,0.2845,0.284,0.2845,0.2848,0.2835,0.2843,0.2832,0.2824,0.2821,0.2787,0.2781,0.2786,0.2761,0.2755,0.2764,0.2729,0.273,0.2791,0.28,0.2807,0.2818,0.2718,0,0,0,0,0,0.2865,0.2864,0.2858,0.2865,0.2869,0.2858,0.286,0.2853,0.2842,0.2838,0.2818,0.2798,0.2791,0.2785,0.2771,0.2778,0.2785,0.2787,0.2795,0.2801,0.2806,0.2831,0.2842,0.2726,0.2726,0.2726,0,0,0.2871,0.2869,0.2865,0.2869,0.2869,0.2876,0.2857,0.2867,0.2871,0.2834,0.2835,0.2824,0.2798,0.2807,0.2807,0.2789,0.2845,0.2804,0.281,0.2811,0.2835,0.2846,0.2856,0.2728,0.2727,0.2727,0,0,0.2887,0.2886,0.2891,0.2897,0.2906,0.29,0.2906,0.29,0.2898,0.2904,0.2879,0.2886,0.2865,0.286,0.2852,0.2891,0.2883,0.2883,0.293,0.2955,0.2965,0.2974,0.3034,0.3047,0.2886,0.2887,0.2887,0,0.2896,0.29,0.2897,0.2911,0.2916,0.2911,0.2922,0.2925,0.2918,0.2922,0.2913,0.2908,0.2892,0.2906,0.2925,0.2909,0.2932,0.2902,0.2967,0.2975,0.2983,0.3042,0.3056,0.2891,0.289,0.289,0.2889,0,0.2916,0.2923,0.2932,0.2939,0.2948,0.2961,0.2963,0.2975,0.2973,0.2971,0.299,0.2982,0.2975,0.2981,0.2968,0.3012,0.3017,0.2976,0.295,0.3,0.3059,0.3072,0.2897,0.2896,0.2894,0.2893,0,0,0.2908,0.2938,0.2937,0.294,0.2963,0.2962,0.2991,0.3004,0.301,0.3029,0.3045,0.306,0.3058,0.305,0.304,0.3074,0.3167,0.3058,0.3057,0.3128,0.3258,0.3266,0.328,0.314,0.3141,0.3143,0.3292,0,0.2919,0.2941,0.2957,0.2968,0.2973,0.2991,0.301,0.3025,0.3037,0.3054,0.3078,0.3085,0.3081,0.3086,0.3123,0.3142,0.3198,0.3132,0.3188,0.3191,0.3199,0.3294,0.3297,0.3429,0.3304,0.3306,0.3308,0,0.2913,0.2931,0.2946,0.2966,0.2971,0.298,0.2999,0.3015,0.3054,0.307,0.3103,0.3113,0.3174,0.3153,0.3248,0.3207,0.3248,0.3274,0.3279,0.326,0.3221,0.3349,0.3457,0.3382,0.3327,0.3325,0.3324,0,0.2869,0.2907,0.2913,0.2922,0.2954,0.2966,0.2983,0.3014,0.3024,0.3078,0.3098,0.3161,0.3184,0.3253,0.3312,0.3288,0.3418,0.3381,0.3438,0.344,0.344,0.3439,0.3486,0.3462,0.3461,0.3461,0.3461,0,0.2848,0.2847,0.2891,0.2888,0.2894,0.2929,0.2935,0.2966,0.301,0.3024,0.3092,0.3121,0.3207,0.3283,0.3345,0.3444,0.3446,0.3481,0.3483,0.3473,0.3473,0.34,0.3296,0.3467,0.3465,0.3464,0.3463,0,0.2778,0.2814,0.2814,0.2856,0.2865,0.2861,0.2899,0.2905,0.296,0.2987,0.3011,0.3104,0.3213,0.3312,0.3427,0.3475,0.3488,0.3598,0.3603,0.3603,0.358,0.3479,0.3346,0.3243,0.3712,0.3713,0.3714,0,0.2736,0.2732,0.2768,0.2767,0.2782,0.2792,0.2801,0.2864,0.2879,0.2968,0.2982,0.3102,0.3176,0.3376,0.3507,0.3663,0.3508,0.3735,0.3682,0.3611,0.3501,0.3291,0.3197,0.3741,0.3742,0.3743,0.3744,0,0.2652,0.2669,0.2674,0.2684,0.269,0.2703,0.2729,0.2741,0.2816,0.2871,0.2949,0.3025,0.3229,0.3383,0.3581,0.3682,0.3567,0.3757,0.3678,0.3533,0.3311,0.3202,0.3626,0.3752,0.3751,0.3751,0.375,0.375,0.2571,0.2566,0.2581,0.2578,0.2591,0.2604,0.2595,0.2653,0.2697,0.2764,0.2878,0.2991,0.3258,0.3547,0.3626,0.3781,0.3594,0.3753,0.3649,0.3452,0.3299,0.3755,0.3867,0.3867,0.3866,0.3866,0.3866,0,0.2457,0.2472,0.2473,0.2472,0.2451,0.2501,0.2529,0.2524,0.2561,0.2699,0.2783,0.3064,0.3282,0.3509,0.378,0.3713,0.3557,0.3605,0.333,0.325,0.3707,0.3659,0.3735,0.3735,0.3735,0.3736,0.3736,0.3736,0.2392,0.2364,0.2379,0.2323,0.2325,0.2291,0.2297,0.2331,0.2419,0.2561,0.2709,0.2857,0.3194,0.3488,0.3613,0.3592,0.3275,0.3142,0.2999,0.3373,0.3378,0.3383,0.3319,0.3323,0.3322,0.2519,0.2513,0.2508]},{"header":{"parameterUnit":"m.s-1","parameterCategory":2,"la1":30.2991,"la2":30.254,"lo1":-89.0895,"lo2":-89.0444,"dy":0.0017,"dx":0.0017,"nx":28,"ny":28,"refTime":"2024-04-19T21:00:00:Z","depth":"0","parameterNumber":3,"parameterNumberName":"V-component_of_CURRENTS"},"data":[0,0,0,0,0,0,0,0,0,0,0,0,0,0,0,0,0,0,0,0,0,0,0,0,0,0,0,0,0,0,0,0,0,0,0,0,0,0,0,0,0,0,0,0,0,0,0,0,0,0,0,0,0,0,0,0,0,0,-0.0136,-0.0136,0,-0.0159,-0.0159,-0.0159,-0.0159,-0.0158,-0.0158,-0.0158,-0.0214,-0.0216,-0.0218,0,0,0,0,0,0,0,0,0,0,0,0,0,-0.0144,-0.0144,-0.0136,-0.0137,-0.0137,-0.0159,-0.0159,-0.0159,-0.0159,-0.0158,-0.0158,-0.0158,-0.0213,-0.0216,-0.0218,0,0,0,0,0,0,0,0,0,0,0,0,0,-0.0152,-0.0144,-0.0136,-0.0139,-0.0139,-0.0159,-0.0159,-0.016,-0.0159,-0.0158,-0.0158,-0.0157,-0.0213,-0.0215,-0.0218,-0.0247,0,0,-0.0227,-0.0228,0,0,0,0,0,0,0,0,-0.0151,-0.0152,-0.0138,-0.0138,-0.0139,-0.0155,-0.0183,-0.019,-0.0159,-0.0152,-0.0158,-0.0157,-0.0197,-0.0201,-0.0207,-0.0249,-0.0252,-0.0227,-0.0229,-0.023,-0.0231,0,0,0,0,0,0,0,-0.0151,-0.0151,-0.0146,-0.0138,-0.0139,-0.0156,-0.0156,-0.0184,-0.0179,-0.0153,-0.0153,-0.0154,-0.0198,-0.0205,-0.0209,-0.0252,-0.0227,-0.0229,-0.0231,-0.0232,-0.0361,-0.0363,0,0,0,0,0,0,-0.0144,-0.015,-0.0145,-0.0147,-0.0143,-0.0156,-0.0156,-0.0151,-0.0178,-0.0181,-0.0155,-0.0154,-0.02,-0.0206,-0.0211,-0.0248,-0.023,-0.0232,-0.0234,-0.036,-0.0362,-0.0364,0,0,0,0,0,0,-0.0144,-0.0143,-0.0144,-0.0149,-0.015,-0.0156,-0.015,-0.0152,-0.0158,-0.0179,-0.0182,-0.0159,-0.02,-0.0207,-0.0244,-0.025,-0.0234,-0.0236,-0.0357,-0.036,-0.0363,-0.0322,0,0,0,0,0,0,-0.0144,-0.0143,-0.014,-0.0148,-0.0149,-0.0155,-0.0151,-0.0152,-0.0159,-0.0159,-0.0184,-0.0189,-0.02,-0.0239,-0.0246,-0.0254,-0.0238,-0.0355,-0.0359,-0.0362,-0.0321,-0.0322,-0.0324,0,0,0,0,0,-0.0144,-0.0141,-0.014,-0.014,-0.0144,-0.0155,-0.0157,-0.0161,-0.016,-0.0164,-0.0188,-0.0188,-0.0266,-0.0243,-0.0251,-0.0259,-0.0354,-0.0358,-0.0362,-0.032,-0.0322,-0.0324,0,0,0,0,0,0,-0.0154,-0.0141,-0.014,-0.0135,-0.0144,-0.0154,-0.0158,-0.0163,-0.0184,-0.0185,-0.0205,-0.0212,-0.0248,-0.0271,-0.0245,-0.0312,-0.0313,-0.0318,-0.0279,-0.0281,-0.0282,-0.0236,-0.0241,0,0,0,0,0,-0.0152,-0.0139,-0.0142,-0.0141,-0.0142,-0.0152,-0.0157,-0.0161,-0.0178,-0.0186,-0.0206,-0.0239,-0.0273,-0.0288,-0.0321,-0.0354,-0.0356,-0.0371,-0.0372,-0.0373,-0.0346,-0.0373,-0.0372,-0.0377,-0.0377,-0.0377,0,0,-0.0158,-0.0149,-0.0143,-0.0141,-0.0146,-0.0144,-0.0154,-0.0161,-0.0161,-0.0191,-0.0206,-0.0244,-0.0286,-0.032,-0.0339,-0.0336,-0.0377,-0.0378,-0.0378,-0.0349,-0.0376,-0.0375,-0.0374,-0.0379,-0.0379,-0.0378,0,0,-0.0155,-0.0153,-0.0136,-0.0139,-0.0141,-0.0146,-0.0147,-0.016,-0.0166,-0.019,-0.0217,-0.0254,-0.0304,-0.0329,-0.035,-0.0386,-0.0387,-0.0412,-0.0374,-0.0401,-0.0399,-0.0398,-0.0401,-0.04,-0.0409,-0.0409,-0.0409,0,-0.0164,-0.0139,-0.014,-0.0127,-0.0124,-0.0143,-0.0133,-0.0146,-0.0172,-0.0174,-0.019,-0.0258,-0.0301,-0.0329,-0.0347,-0.0383,-0.0391,-0.0354,-0.0398,-0.0396,-0.0396,-0.0399,-0.0398,-0.0408,-0.0408,-0.0408,-0.0408,0,-0.0142,-0.0128,-0.0124,-0.0104,-0.0107,-0.0106,-0.0116,-0.0125,-0.0138,-0.0148,-0.0178,-0.0235,-0.0267,-0.0304,-0.0334,-0.0358,-0.0363,-0.0394,-0.0377,-0.0391,-0.0396,-0.0396,-0.0405,-0.0406,-0.0406,-0.0407,0,0,-0.0138,-0.011,-0.0108,-0.0092,-0.0091,-0.009,-0.009,-0.009,-0.0083,-0.0118,-0.0108,-0.0183,-0.0204,-0.023,-0.0281,-0.0307,-0.0325,-0.0343,-0.0345,-0.0316,-0.0364,-0.0367,-0.0367,-0.0362,-0.0362,-0.0362,-0.0368,0,-0.0118,-0.0084,-0.0076,-0.0053,-0.0037,-0.0048,-0.0041,-0.0047,-0.0063,-0.0064,-0.0108,-0.0131,-0.018,-0.0201,-0.0232,-0.0302,-0.0323,-0.0319,-0.0378,-0.0379,-0.0357,-0.0367,-0.0346,-0.035,-0.0368,-0.0368,-0.0368,0,-0.0088,-0.0067,-0.0036,-0.0009,-0.0003,0.0004,0.0019,0.002,0.0011,-0.0001,-0.0017,-0.0051,-0.0086,-0.0138,-0.0214,-0.0208,-0.0274,-0.0326,-0.0329,-0.0337,-0.0382,-0.0343,-0.0349,-0.0441,-0.0368,-0.0368,-0.0368,0,-0.0065,-0.0035,-0.0006,0.0,0.0022,0.0033,0.0042,0.0041,0.0051,0.0041,0.0046,0.0009,-0.0016,-0.0087,-0.0184,-0.0203,-0.0263,-0.0311,-0.0367,-0.0368,-0.0361,-0.0361,-0.0433,-0.0362,-0.0362,-0.0362,-0.0362,0,-0.0036,-0.0013,0.0006,0.0021,0.0055,0.0061,0.0089,0.009,0.01,0.0115,0.0082,0.0082,-0.0009,-0.0054,-0.0146,-0.0237,-0.0234,-0.0342,-0.0368,-0.035,-0.0349,-0.0438,-0.0531,-0.0362,-0.0362,-0.0362,-0.0362,0,-0.0015,-0.0001,0.0033,0.0059,0.0068,0.0091,0.0121,0.014,0.0144,0.0163,0.0166,0.014,0.0084,0.0004,-0.0112,-0.0191,-0.0345,-0.0323,-0.0277,-0.0298,-0.044,-0.0533,-0.0624,-0.069,-0.0377,-0.0377,-0.0377,0,-0.0,0.0021,0.0056,0.0074,0.0085,0.0116,0.014,0.0158,0.0176,0.0192,0.0206,0.0175,0.0151,0.0021,-0.0109,-0.0229,-0.0354,-0.0307,-0.0351,-0.0427,-0.0551,-0.0595,-0.0648,-0.0328,-0.0328,-0.0328,-0.0328,0,0.0022,0.0033,0.0056,0.0095,0.0121,0.0158,0.019,0.0217,0.0237,0.0259,0.0272,0.0262,0.0153,0.0062,-0.0085,-0.0193,-0.0386,-0.0307,-0.0407,-0.0527,-0.056,-0.0642,-0.0332,-0.0325,-0.0325,-0.0326,-0.0326,-0.0326,0.0028,0.0048,0.0075,0.011,0.0146,0.0192,0.0225,0.0263,0.0308,0.0359,0.0335,0.0365,0.0248,0.0056,-0.0129,-0.0364,-0.0407,-0.0436,-0.0541,-0.0574,-0.0645,-0.0314,-0.0333,-0.0333,-0.0333,-0.0333,-0.0334,0,0.0026,0.005,0.0087,0.013,0.0173,0.0192,0.0252,0.0293,0.0349,0.0424,0.0449,0.0488,0.0283,0.0067,-0.0232,-0.0499,-0.0625,-0.0654,-0.0716,-0.0763,-0.0471,-0.0475,-0.05,-0.05,-0.05,-0.05,-0.05,-0.05,0.0024,0.005,0.0073,0.0136,0.0174,0.0237,0.0274,0.0344,0.0418,0.0555,0.0656,0.0724,0.0737,0.0068,-0.0461,-0.068,-0.0908,-0.0967,-0.1087,-0.0891,-0.0878,-0.0866,-0.0887,-0.0998,-0.0999,-0.1303,-0.1306,-0.1309]}],[{"header":{"parameterUnit":"m.s-1","parameterCategory":2,"la1":30.2991,"la2":30.254,"lo1":-89.0895,"lo2":-89.0444,"dy":0.0017,"dx":0.0017,"nx":28,"ny":28,"refTime":"2024-04-19T21:00:00:Z","depth":"2","parameterNumber":2,"parameterNumberName":"U-component_of_CURRENTS"},"data":[0,0,0,0,0,0,0,0,0,0,0,0,0,0,0,0,0,0,0,0,0,0,0,0,0,0,0,0,0,0,0,0,0,0,0,0,0,0,0,0,0,0,0,0,0,0,0,0,0,0,0,0,0,0,0,0,0,0,0.116,0.116,0,0.1153,0.1153,0.1153,0.1144,0.1144,0.1144,0.1144,0.1148,0.1148,0.1148,0,0,0,0,0,0,0,0,0,0,0,0,0,0.1178,0.1177,0.116,0.116,0.116,0.1153,0.1153,0.1153,0.1144,0.1144,0.1144,0.1144,0.1148,0.1148,0.1148,0,0,0,0,0,0,0,0,0,0,0,0,0,0.117,0.1177,0.116,0.1155,0.1155,0.1153,0.1153,0.1153,0.1144,0.1144,0.1144,0.1144,0.1148,0.1148,0.1148,0.1153,0,0,0.1149,0.1149,0,0,0,0,0,0,0,0,0.117,0.1169,0.1156,0.1155,0.1155,0.115,0.116,0.1153,0.1144,0.1148,0.1144,0.1144,0.115,0.115,0.1148,0.1153,0.1153,0.1149,0.1149,0.115,0.115,0,0,0,0,0,0,0,0.1171,0.1169,0.1157,0.1156,0.1155,0.1157,0.1156,0.1159,0.1149,0.1147,0.1147,0.1147,0.115,0.1148,0.1148,0.1153,0.1149,0.115,0.115,0.115,0.1193,0.1194,0,0,0,0,0,0,0.1172,0.117,0.1157,0.1156,0.1163,0.1157,0.1156,0.1151,0.1149,0.1149,0.1147,0.1147,0.1147,0.1148,0.1148,0.117,0.115,0.115,0.115,0.1192,0.1193,0.1194,0,0,0,0,0,0,0.1172,0.1171,0.1157,0.1164,0.1162,0.1157,0.1152,0.1151,0.1154,0.1149,0.1149,0.1152,0.1147,0.1148,0.1165,0.1169,0.115,0.115,0.1191,0.1192,0.1194,0.1202,0,0,0,0,0,0,0.1173,0.1171,0.1173,0.1164,0.1162,0.1159,0.1152,0.1151,0.1154,0.1154,0.1153,0.1153,0.1147,0.1164,0.1165,0.1169,0.115,0.1189,0.1191,0.1193,0.12,0.1203,0.1206,0,0,0,0,0,0.1173,0.1175,0.1173,0.1172,0.1163,0.116,0.1159,0.1155,0.1155,0.1157,0.1165,0.1153,0.1176,0.1166,0.1166,0.117,0.1189,0.1191,0.1193,0.1199,0.1203,0.1206,0,0,0,0,0,0,0.1185,0.1174,0.1172,0.1171,0.1168,0.1158,0.1163,0.116,0.1166,0.1171,0.1165,0.1166,0.1182,0.1181,0.1169,0.1191,0.1181,0.1183,0.1185,0.1188,0.1191,0.1201,0.1151,0,0,0,0,0,0.1189,0.1187,0.1178,0.1179,0.1178,0.1173,0.1173,0.1171,0.1173,0.1175,0.1174,0.1182,0.1191,0.1194,0.1201,0.1212,0.1222,0.1217,0.122,0.1222,0.1232,0.124,0.1244,0.1201,0.1201,0.1201,0,0,0.1195,0.1189,0.1189,0.1182,0.1181,0.1184,0.1173,0.1176,0.1183,0.1176,0.119,0.1192,0.1198,0.1211,0.1218,0.121,0.1245,0.1225,0.1226,0.1236,0.1242,0.1246,0.125,0.1203,0.1203,0.1202,0,0,0.1205,0.1201,0.1203,0.1201,0.12,0.1198,0.1201,0.1196,0.1199,0.1212,0.1211,0.1219,0.123,0.1231,0.1236,0.1261,0.1261,0.1263,0.1281,0.1288,0.1291,0.1294,0.133,0.1336,0.1262,0.1262,0.1262,0,0.1215,0.1212,0.1204,0.1207,0.1211,0.1206,0.1213,0.1216,0.1219,0.1228,0.1222,0.1245,0.124,0.126,0.1267,0.1265,0.1282,0.1263,0.129,0.1293,0.1296,0.1332,0.1339,0.1263,0.1262,0.1262,0.1262,0,0.1222,0.1225,0.1228,0.1229,0.1233,0.1239,0.1241,0.1251,0.1255,0.1258,0.1279,0.1276,0.1293,0.1286,0.1283,0.1303,0.1315,0.1292,0.1277,0.13,0.1338,0.1345,0.1263,0.1263,0.1263,0.1263,0,0,0.123,0.1232,0.1234,0.1241,0.1246,0.1251,0.127,0.1284,0.131,0.1304,0.1335,0.1331,0.1333,0.134,0.1332,0.133,0.1361,0.1322,0.1322,0.1352,0.1405,0.1516,0.1534,0.134,0.134,0.1341,0.1429,0,0.1239,0.1246,0.1248,0.1267,0.1271,0.1281,0.1303,0.1318,0.1337,0.1367,0.1361,0.139,0.1354,0.1373,0.1362,0.137,0.1377,0.1341,0.1384,0.1386,0.1476,0.1545,0.1299,0.1366,0.1436,0.1437,0.1438,0,0.1242,0.1248,0.1262,0.1286,0.1292,0.131,0.1353,0.1373,0.1411,0.1432,0.1452,0.1458,0.1474,0.1434,0.1449,0.1431,0.1425,0.1416,0.1419,0.1526,0.1511,0.1351,0.1375,0.1449,0.1448,0.1447,0.1446,0,0.1241,0.1259,0.1272,0.1278,0.1305,0.1327,0.1351,0.1393,0.1425,0.1485,0.1522,0.1534,0.1567,0.1543,0.1548,0.1498,0.1577,0.1501,0.1594,0.1602,0.1406,0.1397,0.1508,0.1508,0.1508,0.1508,0.1507,0,0.124,0.1253,0.1276,0.1283,0.1317,0.1339,0.139,0.1424,0.1485,0.1538,0.1559,0.1619,0.1594,0.1636,0.1598,0.1662,0.1623,0.1632,0.1642,0.1409,0.14,0.1471,0.1465,0.1511,0.151,0.151,0.1509,0,0.1229,0.1242,0.1261,0.1298,0.1313,0.134,0.1405,0.1442,0.1513,0.1589,0.1616,0.1699,0.1791,0.179,0.18,0.1765,0.1784,0.1807,0.1573,0.1556,0.1782,0.1775,0.1904,0.1909,0.1913,0.1917,0.192,0,0.1217,0.1226,0.1266,0.128,0.1298,0.1342,0.1371,0.1445,0.1492,0.1642,0.1679,0.182,0.1903,0.201,0.1944,0.1946,0.1962,0.1783,0.1646,0.1831,0.1826,0.1813,0.1802,0.137,0.1368,0.1367,0.1366,0,0.1201,0.1221,0.1236,0.1263,0.1294,0.1325,0.138,0.142,0.1524,0.1606,0.1744,0.1834,0.1953,0.1886,0.1955,0.1902,0.1765,0.1764,0.1987,0.1356,0.1348,0.1338,0.1339,0.1352,0.1354,0.1355,0.1355,0.1356,0.1188,0.1196,0.1217,0.1244,0.1268,0.1292,0.131,0.1376,0.1453,0.1519,0.1671,0.1719,0.1731,0.1713,0.171,0.1698,0.1784,0.1658,0.1651,0.1649,0.1619,0.1624,0.1675,0.1678,0.168,0.1683,0.1685,0,0.1161,0.1174,0.1194,0.1215,0.1219,0.1252,0.1297,0.1293,0.1353,0.1401,0.1469,0.1342,0.1346,0.1431,0.1349,0.1394,0.1249,0.1397,0.1139,0.1154,0.1166,0.1102,0.1026,0.1025,0.1024,0.1023,0,0,0.1143,0.115,0.1164,0.1159,0.1172,0.116,0.1172,0.1167,0.118,0.1134,0.111,0.1133,0.1287,0.1069,0.1083,0.1063,0.1091,0.1026,0.1535,0.1237,0.1248,0.1289,0.1207,0,0,0,0,0]},{"header":{"parameterUnit":"m.s-1","parameterCategory":2,"la1":30.2991,"la2":30.254,"lo1":-89.0895,"lo2":-89.0444,"dy":0.0017,"dx":0.0017,"nx":28,"ny":28,"refTime":"2024-04-19T21:00:00:Z","depth":"2","parameterNumber":3,"parameterNumberName":"V-component_of_CURRENTS"},"data":[0,0,0,0,0,0,0,0,0,0,0,0,0,0,0,0,0,0,0,0,0,0,0,0,0,0,0,0,0,0,0,0,0,0,0,0,0,0,0,0,0,0,0,0,0,0,0,0,0,0,0,0,0,0,0,0,0,0,0.0461,0.0461,0,0.0457,0.0457,0.0457,0.041,0.0409,0.0408,0.0407,0.0325,0.0324,0.0323,0,0,0,0,0,0,0,0,0,0,0,0,0,0.0447,0.0447,0.0461,0.0461,0.0461,0.0457,0.0457,0.0456,0.041,0.0409,0.0407,0.0406,0.0326,0.0325,0.0323,0,0,0,0,0,0,0,0,0,0,0,0,0,0.0449,0.0448,0.0461,0.0437,0.0435,0.0457,0.0457,0.0456,0.0411,0.0409,0.0407,0.0405,0.0326,0.0325,0.0323,0.0349,0,0,0.0318,0.0318,0,0,0,0,0,0,0,0,0.0449,0.045,0.0441,0.0439,0.0436,0.0432,0.0422,0.0417,0.0411,0.042,0.0407,0.0405,0.0355,0.0351,0.0356,0.0345,0.0342,0.0318,0.0317,0.0316,0.0316,0,0,0,0,0,0,0,0.0449,0.045,0.046,0.0441,0.0438,0.0432,0.0431,0.0421,0.0397,0.0419,0.0416,0.0415,0.0353,0.0357,0.0353,0.0341,0.0318,0.0317,0.0316,0.0315,0.0303,0.0304,0,0,0,0,0,0,0.045,0.045,0.046,0.0459,0.0438,0.0434,0.0432,0.0435,0.0398,0.0391,0.0417,0.0413,0.0361,0.0355,0.035,0.0327,0.0316,0.0315,0.0314,0.0303,0.0304,0.0304,0,0,0,0,0,0,0.045,0.0451,0.046,0.0454,0.0454,0.0436,0.044,0.0436,0.0423,0.0397,0.0388,0.0405,0.0359,0.0352,0.0342,0.0325,0.0314,0.0313,0.0302,0.0303,0.0304,0.0314,0,0,0,0,0,0,0.045,0.0452,0.0451,0.0454,0.0455,0.0467,0.0442,0.0437,0.0426,0.0421,0.0385,0.0376,0.0357,0.0345,0.0341,0.0323,0.0312,0.0301,0.0302,0.0304,0.0313,0.0316,0.0318,0,0,0,0,0,0.0449,0.0457,0.0451,0.0452,0.0456,0.0467,0.0467,0.0448,0.0427,0.0428,0.0409,0.0377,0.0349,0.0345,0.034,0.0321,0.0301,0.0302,0.0304,0.0312,0.0315,0.0318,0,0,0,0,0,0,0.0449,0.0453,0.0447,0.0454,0.0458,0.0459,0.0455,0.0446,0.0434,0.0418,0.0393,0.0385,0.0369,0.0354,0.0351,0.0324,0.0316,0.0317,0.0325,0.0327,0.0329,0.0314,0.031,0,0,0,0,0,0.0452,0.0456,0.0461,0.0466,0.0465,0.046,0.0459,0.0447,0.044,0.0431,0.0408,0.0386,0.0377,0.0359,0.035,0.0339,0.0303,0.0322,0.0325,0.0326,0.0313,0.0264,0.026,0.0309,0.0309,0.0309,0,0,0.0455,0.0455,0.0459,0.0466,0.0463,0.047,0.0454,0.045,0.0449,0.0425,0.0408,0.0395,0.038,0.0368,0.0357,0.0346,0.0295,0.0328,0.033,0.0315,0.0265,0.026,0.0255,0.031,0.031,0.031,0,0,0.0464,0.0461,0.0467,0.0472,0.0468,0.0469,0.0466,0.046,0.0446,0.0442,0.0424,0.0405,0.0386,0.0371,0.0363,0.0375,0.0316,0.0365,0.035,0.0303,0.0298,0.0293,0.0241,0.0232,0.0356,0.0356,0.0356,0,0.0462,0.0475,0.0472,0.0478,0.0482,0.0468,0.0477,0.0471,0.0461,0.0451,0.0433,0.0403,0.0387,0.0373,0.0372,0.0375,0.0334,0.0339,0.0303,0.0297,0.0292,0.024,0.0229,0.0357,0.0357,0.0356,0.0356,0,0.0481,0.0486,0.0489,0.0494,0.0501,0.0505,0.05,0.0492,0.047,0.0458,0.0432,0.0413,0.0386,0.0382,0.0375,0.0334,0.0313,0.0317,0.029,0.0287,0.0234,0.0222,0.0358,0.0357,0.0357,0.0357,0,0,0.0485,0.05,0.0498,0.051,0.0508,0.0522,0.0515,0.0513,0.051,0.047,0.0456,0.0425,0.039,0.0379,0.0361,0.0316,0.0246,0.029,0.0287,0.0228,0.0124,0.0184,0.0177,0.0233,0.0231,0.023,0.0102,0,0.0497,0.0519,0.0521,0.0545,0.056,0.055,0.0556,0.0546,0.0527,0.0509,0.0457,0.0437,0.0396,0.0378,0.0323,0.0276,0.0215,0.0279,0.0146,0.0142,0.0186,0.0166,0.0132,0.0022,0.009,0.0088,0.0087,0,0.0514,0.0529,0.0551,0.0581,0.0586,0.0593,0.0601,0.0604,0.0571,0.0552,0.0495,0.0454,0.0378,0.0355,0.0215,0.0251,0.0175,0.0132,0.0126,0.0166,0.018,0.0037,-0.0003,0.0067,0.0069,0.007,0.0071,0,0.0533,0.0555,0.0576,0.0583,0.0607,0.0609,0.0616,0.0604,0.062,0.0565,0.056,0.0455,0.0415,0.0291,0.0183,0.0182,0.0042,0.0035,0.0012,0.0015,-0.0047,-0.0045,-0.0075,-0.0075,-0.0075,-0.0075,-0.0074,0,0.0556,0.0574,0.0582,0.0597,0.0629,0.0628,0.0654,0.0649,0.0644,0.0674,0.057,0.058,0.0395,0.0302,0.018,0.0063,0.0026,-0.0004,-0.0016,-0.004,-0.0036,-0.0017,-0.0009,-0.0079,-0.0078,-0.0077,-0.0077,0,0.0581,0.0581,0.0614,0.0632,0.064,0.066,0.0698,0.0727,0.0702,0.0735,0.0717,0.0648,0.0535,0.0361,0.0185,0.0088,-0.0038,-0.0069,-0.0081,-0.009,-0.0045,-0.0034,-0.0135,-0.0134,-0.0133,-0.0132,-0.0132,0,0.0599,0.0615,0.0644,0.0668,0.0675,0.0704,0.074,0.075,0.0798,0.0807,0.0844,0.074,0.0735,0.049,0.0241,0.0013,0.0006,-0.0125,-0.0118,-0.0051,-0.0053,-0.0043,-0.0034,-0.0217,-0.0217,-0.0217,-0.0217,0,0.0644,0.0644,0.0675,0.0719,0.0755,0.0814,0.0866,0.0924,0.0954,0.0999,0.1074,0.107,0.0818,0.0576,0.0257,0.0119,-0.0095,-0.0127,-0.0091,-0.0156,-0.0127,-0.0128,-0.0117,-0.0218,-0.0218,-0.0218,-0.0218,-0.0218,0.0679,0.0707,0.074,0.0786,0.0832,0.0922,0.0994,0.1082,0.1192,0.1217,0.1221,0.1156,0.0838,0.0407,0.0179,-0.0077,-0.0051,-0.016,-0.0162,-0.0163,-0.0109,-0.0076,-0.015,-0.0149,-0.0149,-0.0148,-0.0148,0,0.0728,0.0757,0.0809,0.0874,0.0939,0.0949,0.1083,0.1167,0.1326,0.127,0.129,0.0966,0.0704,0.0394,0.0003,-0.0183,-0.0223,-0.0224,-0.0274,-0.0272,-0.027,-0.0223,-0.0293,-0.0294,-0.0295,-0.0295,0,0,0.0758,0.0816,0.0844,0.0955,0.0997,0.1108,0.1193,0.1316,0.1334,0.1298,0.117,0.0958,0.0675,0.0327,0.0052,-0.0116,-0.0136,-0.0136,-0.0004,-0.003,-0.0026,-0.0223,-0.0145,0,0,0,0,0]}],[{"header":{"parameterUnit":"m.s-1","parameterCategory":2,"la1":30.2991,"la2":30.254,"lo1":-89.0895,"lo2":-89.0444,"dy":0.0017,"dx":0.0017,"nx":28,"ny":28,"refTime":"2024-04-19T21:00:00:Z","depth":"4","parameterNumber":2,"parameterNumberName":"U-component_of_CURRENTS"},"data":[0,0,0,0,0,0,0,0,0,0,0,0,0,0,0,0,0,0,0,0,0,0,0,0,0,0,0,0,0,0,0,0,0,0,0,0,0,0,0,0,0,0,0,0,0,0,0,0,0,0,0,0,0,0,0,0,0,0,0.0491,0.0491,0,0.0494,0.0494,0.0495,0.0562,0.0564,0.0565,0.0566,0.0667,0.0669,0.067,0,0,0,0,0,0,0,0,0,0,0,0,0,0.0507,0.0507,0.0491,0.0491,0.0491,0.0494,0.0494,0.0495,0.0562,0.0564,0.0565,0.0567,0.0667,0.0668,0.067,0,0,0,0,0,0,0,0,0,0,0,0,0,0.0509,0.0507,0.0492,0.0521,0.0524,0.0494,0.0494,0.0495,0.0562,0.0564,0.0566,0.0568,0.0666,0.0668,0.067,0.0644,0,0,0.0677,0.0678,0,0,0,0,0,0,0,0,0.0509,0.0509,0.0517,0.0519,0.0522,0.0526,0.0537,0.0548,0.0561,0.0552,0.0566,0.0569,0.0625,0.063,0.0632,0.0649,0.0653,0.0677,0.0679,0.068,0.068,0,0,0,0,0,0,0,0.0508,0.0509,0.0497,0.0516,0.0519,0.0521,0.0524,0.0539,0.0583,0.0553,0.0557,0.0549,0.0627,0.0629,0.0635,0.0655,0.0677,0.0679,0.0681,0.0681,0.0709,0.0709,0,0,0,0,0,0,0.0498,0.0508,0.0497,0.0497,0.0515,0.0519,0.0523,0.0526,0.058,0.0588,0.0547,0.0552,0.0624,0.0632,0.0638,0.0696,0.068,0.0682,0.0683,0.071,0.0709,0.0708,0,0,0,0,0,0,0.0499,0.0498,0.0497,0.0498,0.0498,0.0517,0.052,0.0525,0.0569,0.0574,0.0586,0.059,0.0626,0.0635,0.0691,0.0698,0.0683,0.0685,0.071,0.0709,0.0709,0.0757,0,0,0,0,0,0,0.05,0.0498,0.0512,0.0498,0.0497,0.0501,0.0517,0.0524,0.0556,0.0564,0.0614,0.0622,0.0629,0.0687,0.0693,0.0701,0.0686,0.0711,0.071,0.0709,0.0757,0.0758,0.076,0,0,0,0,0,0.05,0.0501,0.0513,0.0512,0.0511,0.0501,0.0502,0.0524,0.0557,0.0574,0.0618,0.0623,0.0683,0.069,0.0696,0.0705,0.0712,0.071,0.0709,0.0756,0.0758,0.076,0,0,0,0,0,0,0.0507,0.0507,0.052,0.052,0.0523,0.0512,0.0524,0.0545,0.059,0.0617,0.0637,0.0648,0.0691,0.0686,0.0693,0.0702,0.0689,0.0689,0.0722,0.0724,0.0726,0.0745,0.0688,0,0,0,0,0,0.0513,0.0524,0.0517,0.0521,0.0526,0.0537,0.0543,0.0562,0.0586,0.061,0.0652,0.0675,0.0678,0.0699,0.0709,0.0729,0.0727,0.0728,0.0729,0.0731,0.0747,0.0734,0.0737,0.0704,0.0704,0.0704,0,0,0.0517,0.0515,0.0524,0.0525,0.0532,0.0541,0.0549,0.0568,0.0598,0.0612,0.0692,0.0697,0.0686,0.0707,0.0723,0.0715,0.074,0.0729,0.0732,0.0747,0.0733,0.0737,0.074,0.0703,0.0703,0.0704,0,0,0.0518,0.0532,0.0545,0.0549,0.0562,0.0564,0.058,0.0606,0.0648,0.0704,0.0708,0.0726,0.0764,0.0745,0.0736,0.0749,0.0751,0.0744,0.0775,0.0763,0.0766,0.0769,0.0782,0.0786,0.0743,0.0743,0.0743,0,0.0531,0.0536,0.0545,0.0554,0.0561,0.0582,0.0599,0.0629,0.0681,0.0716,0.0744,0.0775,0.0774,0.0762,0.0765,0.0756,0.0763,0.0775,0.0768,0.0771,0.0773,0.0786,0.0789,0.0745,0.0745,0.0744,0.0744,0,0.0532,0.055,0.0554,0.0578,0.0591,0.0604,0.0635,0.0681,0.0739,0.0772,0.0821,0.0819,0.0834,0.0816,0.0805,0.0801,0.0807,0.0777,0.0772,0.078,0.0792,0.0795,0.0748,0.0747,0.0747,0.0746,0,0,0.0529,0.0555,0.0558,0.0581,0.0609,0.0617,0.0668,0.0711,0.0759,0.082,0.0874,0.0868,0.0887,0.0875,0.0848,0.0835,0.0855,0.0825,0.0823,0.0855,0.0859,0.0801,0.0798,0.0833,0.0833,0.0833,0.0867,0,0.0534,0.0551,0.0566,0.06,0.0618,0.0651,0.0692,0.0742,0.0804,0.0869,0.0877,0.0922,0.0901,0.0914,0.0898,0.0864,0.0864,0.0851,0.0832,0.0832,0.0792,0.0799,0.0835,0.0869,0.087,0.087,0.0871,0,0.0531,0.0543,0.0575,0.0622,0.0635,0.067,0.0738,0.0787,0.0864,0.0919,0.0963,0.0981,0.0982,0.0962,0.0934,0.0935,0.0914,0.0886,0.0885,0.0818,0.0778,0.0853,0.0876,0.0875,0.0875,0.0875,0.0874,0,0.0515,0.0552,0.0579,0.0592,0.0645,0.0691,0.0743,0.082,0.0867,0.0973,0.1005,0.103,0.104,0.102,0.0957,0.0968,0.0914,0.0915,0.0847,0.0844,0.0868,0.0864,0.0905,0.0905,0.0905,0.0904,0.0904,0,0.0501,0.0524,0.0587,0.0601,0.0654,0.0714,0.079,0.085,0.0932,0.0974,0.1045,0.1043,0.1056,0.1015,0.098,0.0909,0.0932,0.0865,0.0844,0.0888,0.0885,0.0871,0.0867,0.0906,0.0905,0.0905,0.0905,0,0.0471,0.0506,0.0543,0.0616,0.065,0.0704,0.0811,0.085,0.095,0.1001,0.1035,0.1067,0.104,0.1006,0.096,0.0923,0.0866,0.0829,0.0888,0.0867,0.0819,0.0817,0.0818,0.0816,0.0815,0.0814,0.0812,0,0.0455,0.0473,0.0547,0.0578,0.0623,0.0711,0.0752,0.086,0.0896,0.0979,0.0977,0.0994,0.0997,0.0892,0.0875,0.0831,0.0801,0.0801,0.0821,0.0829,0.0809,0.0809,0.0809,0.081,0.0809,0.0809,0.0809,0,0.0423,0.0456,0.048,0.0543,0.06,0.0642,0.0728,0.0744,0.0845,0.0915,0.0916,0.0916,0.088,0.0854,0.0809,0.0764,0.0826,0.0786,0.079,0.0809,0.0819,0.08,0.0802,0.0803,0.0804,0.0804,0.0805,0,0.0402,0.0401,0.0443,0.0499,0.0557,0.058,0.0625,0.0667,0.0715,0.0818,0.0797,0.0817,0.0853,0.0815,0.0754,0.0728,0.0749,0.075,0.0757,0.0763,0.0724,0.0727,0.0673,0,0,0,0,0,0.0379,0.0369,0.0399,0.0446,0.0503,0.0537,0.0598,0.0636,0.0718,0.0701,0.0766,0.0734,0.0723,0.0722,0.0686,0.0728,0.0735,0.0685,0.0736,0.0772,0.0779,0.0735,0,0,0,0,0,0,0.0355,0.0369,0.0369,0.0403,0.043,0.0469,0.0504,0.0548,0.0555,0.0642,0.0623,0.0708,0.0678,0.0726,0.0673,0.0676,0.0701,0.0707,0.0706,0.0769,0.0775,0.078,0.0737,0,0,0,0,0]},{"header":{"parameterUnit":"m.s-1","parameterCategory":2,"la1":30.2991,"la2":30.254,"lo1":-89.0895,"lo2":-89.0444,"dy":0.0017,"dx":0.0017,"nx":28,"ny":28,"refTime":"2024-04-19T21:00:00:Z","depth":"4","parameterNumber":3,"parameterNumberName":"V-component_of_CURRENTS"},"data":[0,0,0,0,0,0,0,0,0,0,0,0,0,0,0,0,0,0,0,0,0,0,0,0,0,0,0,0,0,0,0,0,0,0,0,0,0,0,0,0,0,0,0,0,0,0,0,0,0,0,0,0,0,0,0,0,0,0,0.0137,0.0137,0,0.0105,0.0104,0.0104,0.0102,0.0103,0.0103,0.0103,0.0005,0.0002,-0.0001,0,0,0,0,0,0,0,0,0,0,0,0,0,0.0171,0.017,0.0137,0.0136,0.0136,0.0105,0.0104,0.0104,0.0102,0.0103,0.0103,0.0103,0.0006,0.0002,-0.0002,0,0,0,0,0,0,0,0,0,0,0,0,0,0.0149,0.017,0.0137,0.0132,0.0131,0.0105,0.0104,0.0104,0.0102,0.0103,0.0103,0.0104,0.0007,0.0002,-0.0002,-0.0041,0,0,-0.0016,-0.0018,0,0,0,0,0,0,0,0,0.015,0.0148,0.0133,0.0132,0.0131,0.0108,0.008,0.0052,0.0102,0.0113,0.0103,0.0104,0.0033,0.0026,0.0019,-0.0046,-0.005,-0.0016,-0.0019,-0.0021,-0.0022,0,0,0,0,0,0,0,0.0152,0.0149,0.0124,0.0132,0.0131,0.0122,0.012,0.0075,0.0068,0.0112,0.0112,0.0108,0.0032,0.0024,0.0017,-0.0052,-0.0016,-0.002,-0.0023,-0.0025,-0.015,-0.0151,0,0,0,0,0,0,0.0157,0.015,0.0125,0.0123,0.0142,0.0121,0.0118,0.0115,0.007,0.0065,0.0108,0.0108,0.0031,0.0022,0.0013,-0.0031,-0.0021,-0.0025,-0.0028,-0.015,-0.0151,-0.0151,0,0,0,0,0,0,0.0157,0.0155,0.0126,0.0136,0.0132,0.012,0.0116,0.0114,0.0108,0.0068,0.0061,0.0104,0.0031,0.002,-0.0033,-0.0035,-0.0027,-0.0031,-0.0149,-0.015,-0.0151,-0.0124,0,0,0,0,0,0,0.0159,0.0155,0.0155,0.0136,0.0132,0.0113,0.0115,0.0113,0.0105,0.0105,0.0062,0.0054,0.0031,-0.0026,-0.0037,-0.0041,-0.0035,-0.0148,-0.0149,-0.0151,-0.0124,-0.0124,-0.0124,0,0,0,0,0,0.016,0.0154,0.0155,0.0152,0.0132,0.0112,0.0109,0.0102,0.0104,0.01,0.0065,0.0056,-0.0041,-0.0031,-0.0044,-0.0049,-0.0148,-0.0149,-0.015,-0.0124,-0.0124,-0.0124,0,0,0,0,0,0,0.0164,0.0153,0.0154,0.0145,0.0132,0.0112,0.0107,0.0101,0.0072,0.0071,0.0036,0.0024,-0.0022,-0.0044,-0.0031,-0.0089,-0.0092,-0.0096,-0.0068,-0.0068,-0.0068,-0.0059,-0.0038,0,0,0,0,0,0.0166,0.0163,0.0149,0.0141,0.0137,0.0123,0.0115,0.0109,0.0082,0.0072,0.0037,-0.0,-0.0039,-0.0059,-0.01,-0.0138,-0.0147,-0.0147,-0.0147,-0.0147,-0.0149,-0.0163,-0.0163,-0.0156,-0.0156,-0.0156,0,0,0.0166,0.0159,0.0157,0.0142,0.0134,0.0123,0.0119,0.0107,0.0092,0.0061,0.0023,-0.0009,-0.0052,-0.0091,-0.0112,-0.0108,-0.0153,-0.0148,-0.0148,-0.0151,-0.0164,-0.0165,-0.0165,-0.0157,-0.0157,-0.0157,0,0,0.0161,0.0158,0.0156,0.0146,0.0134,0.0123,0.012,0.0097,0.0083,0.0041,0.0018,-0.0019,-0.0079,-0.0106,-0.0127,-0.0155,-0.0157,-0.0159,-0.0148,-0.0161,-0.0161,-0.0161,-0.0166,-0.0167,-0.0152,-0.0152,-0.0152,0,0.0164,0.0157,0.015,0.0144,0.0136,0.0124,0.0117,0.0096,0.0055,0.0034,0.0031,-0.0054,-0.0087,-0.0132,-0.0132,-0.0154,-0.0154,-0.0141,-0.0158,-0.0159,-0.016,-0.0165,-0.0167,-0.0151,-0.0151,-0.0152,-0.0152,0,0.0157,0.0154,0.015,0.0141,0.013,0.012,0.0096,0.0076,0.0057,0.0031,-0.0022,-0.0066,-0.0106,-0.0122,-0.0135,-0.0157,-0.0152,-0.0159,-0.0153,-0.0159,-0.0164,-0.0166,-0.015,-0.015,-0.015,-0.0151,0,0,0.016,0.015,0.0149,0.0149,0.0129,0.012,0.0092,0.0061,0.0041,-0.0001,-0.0033,-0.009,-0.01,-0.0124,-0.0143,-0.0155,-0.0155,-0.0148,-0.0149,-0.0142,-0.017,-0.0171,-0.0173,-0.0154,-0.0154,-0.0155,-0.0168,0,0.016,0.0156,0.0145,0.0136,0.0134,0.0113,0.009,0.0058,0.0024,-0.0014,-0.0058,-0.0093,-0.0103,-0.0108,-0.0125,-0.0157,-0.016,-0.0151,-0.0175,-0.0176,-0.0167,-0.0176,-0.0156,-0.0169,-0.017,-0.017,-0.017,0,0.0158,0.0157,0.0155,0.0142,0.0139,0.0131,0.0099,0.0074,0.0018,-0.0005,-0.0044,-0.0074,-0.0107,-0.0106,-0.0151,-0.0138,-0.0144,-0.0166,-0.0167,-0.018,-0.0181,-0.0167,-0.0174,-0.0174,-0.0173,-0.0173,-0.0173,0,0.017,0.0162,0.0164,0.016,0.0143,0.0137,0.0125,0.0078,0.0062,0.0012,0.0,-0.0056,-0.007,-0.01,-0.014,-0.0132,-0.0191,-0.0187,-0.0198,-0.0198,-0.0202,-0.0202,-0.0206,-0.0206,-0.0206,-0.0206,-0.0206,0,0.0171,0.0171,0.0176,0.0178,0.018,0.0159,0.0151,0.0124,0.0092,0.0076,0.0022,0.0001,-0.0064,-0.0108,-0.0139,-0.0181,-0.0185,-0.02,-0.0204,-0.0191,-0.0189,-0.0203,-0.0202,-0.0206,-0.0206,-0.0206,-0.0206,0,0.0173,0.0177,0.0183,0.0183,0.0189,0.019,0.0191,0.0179,0.0151,0.0133,0.013,0.0053,-0.0006,-0.0082,-0.0145,-0.0171,-0.0218,-0.0226,-0.0209,-0.0212,-0.0212,-0.0211,-0.0233,-0.0233,-0.0233,-0.0233,-0.0233,0,0.017,0.0179,0.0198,0.0213,0.0218,0.0227,0.0233,0.0215,0.021,0.0165,0.0159,0.0093,0.004,-0.0062,-0.0143,-0.022,-0.0224,-0.0238,-0.0224,-0.0214,-0.0217,-0.0214,-0.0212,-0.0234,-0.0234,-0.0234,-0.0234,0,0.0168,0.0181,0.0189,0.0229,0.0249,0.0263,0.0275,0.0282,0.026,0.0243,0.02,0.0133,0.0049,-0.0051,-0.0121,-0.0173,-0.023,-0.0239,-0.0239,-0.0226,-0.0216,-0.0217,-0.0215,-0.0235,-0.0234,-0.0234,-0.0234,0,0.0168,0.0175,0.0202,0.0234,0.0268,0.0288,0.0291,0.0294,0.0292,0.0258,0.0243,0.0143,0.0084,-0.0027,-0.0093,-0.0154,-0.0155,-0.0151,-0.0155,-0.0155,-0.0137,-0.0113,-0.0105,0,0,0,0,0,0.0169,0.0181,0.0206,0.0241,0.0279,0.0298,0.0313,0.0312,0.0308,0.0295,0.0275,0.0202,0.0085,0.0012,-0.0044,-0.0102,-0.0176,-0.0169,-0.0175,-0.0238,-0.0237,-0.023,0,0,0,0,0,0,0.0165,0.0189,0.02,0.025,0.0279,0.0311,0.0323,0.0316,0.0308,0.0296,0.0228,0.0207,0.008,0.0124,-0.0039,-0.0063,-0.0069,-0.0227,-0.0228,-0.0239,-0.0238,-0.0237,-0.023,0,0,0,0,0]}]]